SCP
0 0 0 0 0 0 0 0 0 0 0 0 0 0 0 0 1 1 1 1 1 1 1 1 1 1 1 1 1 1 1 1 1 1 1 1 1 1 1 1 1 1 1 1
0 0 0 0 0 0 0 0 0 0 0 0 1 1 1 1 1 1 1 1 1 1 1 1 1 1 1 1 1 1 1 1 1 1 1 1 1 1 1 1 1 1 1 1
0 0 0 0 0 0 0 0 0 0 0 1 1 1 1 1 1 1 1 1 1 1 1 1 1 1 1 1 1 1 1 1 1 1 1 1 1 1 1 1 1 1 1 1
0 0 0 0 0 0 0 0 0 0 1 1 1 1 1 1 2 2 2 1 1 1 2 2 2 1 1 1 1 1 1 1 2 1 1 1 1 1 1 1 1 1 1 1
0 0 0 0 0 0 0 1 0 0 1 1 1 2 2 1 1 2 2 2 1 1 1 1 1 1 1 1 1 1 1 1 2 2 1 1 1 1 1 1 1 1 1 1
0 0 0 0 0 0 0 0 0 1 1 1 1 1 1 1 1 1 1 1 1 1 1 1 1 1 1 1 1 1 1 1 1 1 1 1 1 1 1 1 1 1 1 1
0 0 0 0 0 0 0 0 0 1 1 1 1 1 1 1 1 1 1 1 1 1 1 1 1 1 1 1 1 1 1 1 1 1 1 1 1 1 1 1 1 1 1 1
0 0 0 0 0 0 0 0 0 0 1 1 1 1 1 1 1 1 1 1 1 1 1 1 1 1 1 1 1 1 1 1 1 1 1 1 1 1 1 1 1 1 1 1
0 0 0 0 0 0 0 0 0 1 1 1 1 1 1 1 1 1 1 1 1 1 1 1 1 1 1 1 1 1 1 1 1 1 1 1 1 1 1 1 1 1 1 1
0 0 0 0 0 0 1 0 0 1 1 1 1 1 1 1 1 1 1 1 1 1 1 1 1 1 1 1 1 1 1 1 1 1 1 1 1 1 1 1 1 1 1 1
0 0 1 0 0 0 1 0 0 1 1 1 1 1 1 1 0 1 1 1 1 1 1 1 1 1 1 1 1 1 1 1 1 1 1 1 1 1 1 1 1 1 1 1
0 0 0 0 0 0 0 0 0 0 0 0 0 0 0 0 0 0 0 1 1 1 1 1 1 1 1 1 1 1 1 1 1 1 1 1 1 1 0 0 0 0 0 0
0 0 0 0 0 0 0 0 0 0 0 0 0 0 0 0 0 0 0 0 0 1 1 1 1 1 1 1 0 0 0 0 0 0 1 1 1 1 1 0 0 0 0 0
0 0 0 0 0 0 0 0 0 0 0 0 0 0 0 0 0 0 0 0 0 0 1 1 1 1 1 1 0 0 0 0 0 0 1 1 1 1 1 1 0 0 0 0
0 0 0 0 0 0 0 0 0 0 0 0 0 0 0 0 0 0 0 0 0 0 0 0 0 0 0 0 0 0 0 0 0 0 0 1 1 1 1 1 1 0 0 0
0 0 0 0 0 0 0 0 0 0 0 0 0 0 0 0 0 0 0 0 0 0 0 0 0 0 0 0 0 0 0 0 0 0 0 0 0 0 0 0 0 0 0 0
0 0 0 0 0 0 0 0 0 0 0 0 0 0 0 0 0 0 0 0 0 0 0 0 0 0 0 0 0 0 0 0 0 0 0 0 0 0 0 0 0 0 0 0
0 0 0 0 0 0 0 0 0 0 0 0 0 0 0 0 0 0 0 0 0 0 0 0 0 0 0 0 0 0 0 0 0 0 0 0 0 0 0 0 0 0 0 0
0 0 0 0 0 0 0 0 0 0 0 0 0 0 0 0 0 0 0 0 0 0 0 0 0 0 0 0 0 0 0 0 0 0 0 0 0 0 0 0 0 0 0 0
0 0 0 0 0 0 0 0 0 0 0 0 0 0 0 0 0 0 0 0 0 0 0 0 0 0 0 0 0 0 0 0 0 0 0 0 0 0 0 0 0 0 0 0
0 0 0 0 0 0 0 0 0 0 0 0 0 0 0 0 0 0 0 0 0 0 0 0 0 0 0 0 0 0 0 0 0 0 0 0 0 0 0 0 0 0 0 0
0 0 0 0 0 0 0 0 0 0 0 0 0 0 0 0 0 0 0 0 0 0 0 0 0 0 0 0 0 0 0 0 0 0 0 0 0 0 0 0 0 0 0 0
0 0 0 0 0 0 0 0 0 0 0 0 0 0 0 0 0 0 0 0 0 0 0 0 0 0 0 0 0 0 0 0 0 0 0 0 0 0 0 0 0 0 0 0
0 0 0 0 0 0 0 0 0 0 0 0 0 0 0 0 0 0 0 0 0 0 0 0 0 0 0 0 0 0 0 0 0 0 0 0 0 0 0 0 0 0 0 0
0 0 0 0 0 0 0 0 0 0 0 0 0 0 0 0 0 0 0 0 0 0 0 0 0 0 0 0 0 0 0 0 0 0 0 0 0 0 0 0 0 0 0 0
0 0 0 0 0 0 0 0 0 0 0 0 0 0 0 0 0 0 0 0 0 0 0 0 0 0 0 0 0 0 0 0 0 0 0 0 0 0 0 0 0 0 0 0
0 0 0 0 0 0 0 0 0 0 0 -0 0 0 0 0 0 0 0 0 0 0 0 0 0 0 0 0 0 0 0 0 0 0 0 0 0 0 0 0 0 0 0 0
Wind_Speed
4 4 2 2 2 1 3 7 7 8 9 9 9 7 5 4 4 5 5 7 9 9 9 8 7 7 7 7 6 7 8 7 7 7 6 5 5 5 4 4 5 4 4 4
1 0 1 2 2 2 2 3 5 7 5 4 4 5 5 5 6 6 6 6 7 8 8 8 7 7 6 6 6 6 7 7 6 6 5 5 5 5 5 5 4 4 4 4
1 2 3 3 2 2 1 1 6 7 6 4 4 4 5 5 6 7 6 6 7 8 8 8 8 7 7 6 6 6 6 6 5 5 6 6 5 4 5 5 4 4 4 4
1 3 2 6 2 3 4 2 2 4 5 7 7 5 3 4 6 6 5 5 5 6 6 5 6 5 5 5 6 6 5 5 5 5 5 5 5 5 5 4 4 4 4 5
3 2 3 4 2 1 4 1 1 4 6 7 8 7 5 3 5 5 4 4 4 5 5 5 5 5 5 4 4 4 4 4 4 5 5 5 5 6 5 4 4 4 4 5
4 4 4 6 5 1 6 1 2 5 6 6 6 5 1 2 5 5 3 3 4 4 4 4 3 4 6 4 4 3 3 3 3 4 4 5 5 4 3 4 4 4 4 4
3 3 5 6 5 2 4 5 3 4 6 5 4 4 4 4 5 4 3 4 5 6 4 3 3 5 4 3 3 2 2 1 1 2 3 4 3 3 3 3 3 3 3 3
3 2 5 5 3 2 5 3 4 5 5 6 6 7 6 6 5 5 4 4 5 5 3 2 3 5 4 2 2 1 1 1 1 2 2 2 2 3 2 3 3 3 3 3
4 5 4 1 2 2 5 6 5 5 6 8 7 6 6 5 4 4 4 4 4 5 4 3 2 3 3 2 2 2 1 1 1 2 2 2 3 3 2 2 2 2 2 3
2 1 1 4 5 5 6 6 6 7 8 8 8 5 5 5 4 4 4 3 3 4 3 2 2 2 1 1 1 2 1 1 1 1 1 1 1 2 2 2 3 3 3 3
2 1 4 5 5 5 6 7 7 7 7 7 7 6 4 4 3 4 4 3 3 3 2 1 1 2 1 1 2 1 0 1 0 1 1 1 1 1 2 2 4 4 3 3
3 4 3 1 1 5 6 6 6 7 7 5 6 6 4 4 3 4 4 3 3 3 1 1 1 1 1 1 1 1 0 1 1 1 1 1 1 1 2 2 2 4 5 4
4 3 3 3 3 5 6 5 6 6 6 5 5 4 4 4 3 4 4 3 3 2 1 1 1 1 2 1 1 0 0 1 1 1 1 1 2 2 2 3 3 3 4 5
5 6 4 3 4 6 7 7 7 6 5 5 4 4 5 5 4 4 3 3 3 3 3 3 3 3 3 2 1 1 1 1 1 1 1 1 2 2 2 2 2 3 3 4
3 5 5 5 6 6 6 7 8 6 6 5 4 5 6 5 4 3 2 3 4 4 4 3 3 3 4 3 2 1 1 1 1 1 1 1 1 1 1 2 2 2 2 2
3 5 6 7 6 6 7 8 7 5 5 5 5 5 5 5 4 3 3 4 4 3 2 2 2 3 3 2 2 1 1 2 1 1 1 1 1 1 1 2 2 2 3 3
6 5 6 6 5 5 5 5 6 6 5 5 5 5 5 5 5 4 3 3 2 2 2 2 2 4 4 3 2 1 1 1 2 1 1 1 1 1 1 1 2 3 3 3
5 5 6 6 6 5 5 6 6 6 5 4 5 5 5 4 3 2 1 1 2 3 3 3 3 3 3 3 2 1 1 1 1 1 1 1 1 1 1 2 2 2 2 2
6 6 6 6 6 6 6 5 4 4 4 5 5 4 3 3 2 1 1 2 3 3 4 4 4 3 3 4 3 2 2 2 2 2 1 2 2 1 1 2 2 2 2 1
5 6 6 5 5 6 6 4 4 4 4 4 5 4 3 2 1 2 2 2 1 1 2 3 3 3 3 4 4 2 2 2 2 2 2 2 2 2 1 2 2 2 1 1
5 5 5 5 5 4 4 5 5 4 3 4 4 3 2 1 1 2 2 1 2 2 2 3 3 3 3 4 4 2 2 2 2 2 2 2 2 2 2 2 2 2 1 2
4 4 4 4 4 3 3 3 4 4 3 3 3 3 3 2 1 1 0 1 2 2 2 2 2 3 4 4 2 2 2 2 2 2 2 2 2 2 2 2 2 2 2 2
3 3 4 4 4 3 2 2 2 3 2 2 2 2 2 2 1 1 1 2 1 2 1 2 3 4 4 3 2 2 3 3 2 2 2 2 2 2 2 2 2 2 2 2
3 3 2 3 3 3 2 1 1 1 2 2 2 2 2 1 0 1 1 1 1 1 1 2 4 5 4 2 3 3 3 3 2 2 2 2 2 2 2 2 2 2 2 2
2 3 3 4 3 2 2 1 2 2 2 2 2 2 1 1 2 1 0 0 1 1 1 3 4 4 3 3 3 3 3 3 3 3 3 2 1 1 1 2 2 2 2 2
2 2 2 3 2 2 1 2 2 1 2 2 1 1 1 1 1 1 1 1 1 1 1 2 2 3 2 3 3 3 3 3 4 3 3 3 3 2 2 2 3 2 2 2
2 2 2 2 2 2 2 2 2 1 2 2 1 0 0 1 1 1 1 1 1 1 1 1 1 2 2 2 2 3 3 3 3 3 3 3 2 2 2 2 2 2 2 2
Wind_Direction
198 213 188 219 253 227 171 181 177 200 197 209 197 181 166 149 139 133 130 140 154 162 161 164 165 170 173 181 184 180 179 185 194 195 190 186 188 191 194 195 198 196 201 210
11 46 64 326 282 211 204 167 164 162 207 219 177 143 126 128 134 128 129 137 146 151 151 157 161 170 170 174 175 168 175 189 193 188 185 189 191 189 189 199 199 188 194 202
277 313 40 320 280 191 163 146 156 174 204 163 133 141 146 137 133 139 147 149 152 153 157 164 169 170 170 177 171 168 178 188 186 186 186 191 190 186 195 203 200 198 203 209
131 57 209 245 253 123 112 74 87 140 157 154 148 137 111 120 126 131 138 142 147 149 153 159 158 156 157 155 158 166 178 187 190 188 196 198 190 196 204 201 202 208 211 218
118 147 270 295 304 146 117 27 23 129 142 131 121 93 56 54 106 126 138 136 131 133 140 135 141 147 137 139 145 153 173 184 190 191 194 199 202 207 205 197 204 211 211 215
125 143 220 254 284 234 99 9 302 128 141 141 120 114 164 69 88 85 92 112 113 105 104 112 122 127 127 137 135 154 180 190 186 186 194 207 210 206 200 196 205 209 220 221
147 178 250 267 292 56 118 219 231 137 136 128 112 140 147 107 87 88 82 100 102 100 103 116 123 119 121 130 157 187 178 160 170 193 204 206 205 202 197 197 200 207 219 229
142 164 250 300 24 131 191 173 123 108 109 103 108 110 111 105 94 80 76 91 104 103 102 99 110 118 124 153 190 169 163 175 212 228 227 215 206 210 201 193 202 217 225 245
171 205 244 319 123 162 133 120 116 116 118 118 112 115 118 113 102 88 82 84 100 107 96 74 84 114 136 200 184 165 174 226 250 255 250 228 209 209 207 201 204 221 225 239
72 344 58 65 64 63 87 102 110 114 117 114 111 114 113 108 102 92 82 83 87 94 93 69 58 91 134 181 151 146 176 230 252 239 255 263 222 198 203 215 217 223 225 238
108 133 48 39 66 80 79 87 92 95 106 111 112 108 103 100 90 84 75 62 77 89 91 84 66 63 52 60 101 114 171 216 246 205 208 215 194 198 211 227 216 211 224 223
196 204 144 181 145 108 99 94 97 98 91 95 112 116 104 90 82 86 74 55 57 57 72 78 67 41 12 26 76 111 164 237 213 205 204 198 186 311 319 253 258 237 226 226
164 156 130 139 103 101 105 105 102 108 114 110 102 109 105 94 74 72 72 57 44 24 17 32 40 14 348 14 52 73 244 265 262 241 222 213 208 204 259 305 305 279 262 257
118 107 90 93 104 103 106 106 100 94 91 101 111 111 108 99 86 74 63 46 39 37 31 32 32 3 342 4 29 357 295 271 263 248 245 242 231 226 221 232 280 297 291 259
97 114 129 117 104 104 109 106 99 94 90 83 89 96 98 95 86 72 61 55 51 49 35 29 27 353 344 1 16 342 313 302 297 288 274 265 254 242 241 239 243 266 290 284
106 93 97 100 103 101 101 105 106 104 102 96 92 96 99 99 88 70 58 58 52 36 12 4 358 330 337 352 356 343 310 333 335 316 307 300 284 265 261 254 249 247 253 253
110 107 105 102 103 102 104 110 113 112 106 102 104 102 93 85 76 66 47 38 40 9 358 10 347 333 339 342 344 325 318 316 332 325 281 271 274 267 257 258 262 259 257 250
119 122 123 128 124 110 100 99 102 108 112 113 105 98 95 93 89 79 70 55 30 12 359 348 342 341 348 347 345 333 322 311 312 314 308 307 297 285 276 274 279 282 284 283
90 92 96 105 111 114 110 107 111 112 110 110 107 104 105 103 94 74 67 59 39 9 336 334 342 354 347 343 350 337 333 329 328 325 317 310 302 296 291 296 297 291 287 279
91 96 95 90 92 109 114 112 106 102 107 115 113 105 93 79 72 66 68 61 346 287 303 333 348 349 338 340 355 345 340 334 329 321 318 313 302 296 288 280 282 292 295 279
105 104 98 95 95 104 115 119 114 114 120 125 127 134 136 124 83 84 86 38 314 326 341 345 349 344 345 345 351 353 349 341 334 324 319 315 315 313 306 297 294 297 294 285
107 106 106 105 107 105 107 111 115 118 116 116 117 122 122 121 98 71 90 229 275 321 345 342 333 342 350 348 346 346 348 347 336 334 336 325 318 313 315 318 312 306 298 291
111 110 110 112 119 122 106 103 119 127 129 132 135 140 148 174 178 159 248 278 281 307 325 313 318 339 358 356 345 341 343 345 337 332 330 319 306 298 303 315 315 316 318 312
115 111 115 115 107 101 98 110 116 119 128 131 144 159 153 134 67 258 222 262 289 315 311 316 333 351 4 360 352 355 351 343 334 330 329 325 316 312 314 323 332 335 343 344
117 115 111 109 109 128 151 115 88 88 90 84 79 69 93 141 158 208 177 29 26 30 -0 352 358 358 8 0 2 5 360 354 349 344 338 333 333 350 354 353 353 355 360 356
112 119 122 127 134 139 128 112 112 112 102 85 56 57 49 53 89 101 99 91 80 47 17 0 8 12 16 14 10 11 11 7 10 14 15 16 23 28 17 6 1 3 8 10
92 91 94 84 71 86 101 108 112 113 117 114 103 41 40 75 80 81 75 63 60 36 16 14 17 20 17 14 13 22 28 26 19 17 22 27 31 29 18 20 21 22 23 23